Location: Tel Aviv
(32.0670°N, 34.7670°E)
Time: 12:42:28
(UTC+03:00)

Tiros 1 - Pass Details

Date: 22 January 2022
Orbit: 629 x 663 km, 48.4° (Epoch: 27 May)

Event Time Altitude Azimuth Distance (km) Brightness Sun altitude
Rises 06:18:45 0° 308° (NW) 2,959 - -5.0°
Exits shadow 06:19:52 - 308° (NW) 2,520 9.6 -4.8°
Reaches altitude 10° 06:21:06 10° 307° (NW) 2,041 9.1 -4.5°
Maximum altitude 06:25:48 75° 222° (SW) 662 7.2 -3.6°
Drops below altitude 10° 06:30:25 10° 137° (SE) 2,011 11.0 -2.7°
Sets 06:32:43 0° 136° (SE) 2,912 12.0 -2.3°
